CAPE
65 64 813 1091 296 431 171 123 26 206 223 202 20 17 64 390 156 134 435 338 433 623 1006 1469 2501 2120 2039 2611 2376 1979 2058 1974 1744 1731 1691 1719 1809 1355 1650 1672 1728 1781 1805 1819 1692 1586 1344 1461 1507
0 53 873 360 335 123 4 74 75 199 223 233 110 125 75 324 435 451 412 606 479 736 718 1419 2582 2649 1945 1746 2429 2124 1762 1958 1863 1837 1547 1699 1368 1429 1082 1213 1344 1327 1414 1645 1648 1545 1168 1368 1513
0 421 245 525 341 18 2 18 78 142 235 273 298 176 157 186 427 411 510 644 692 792 687 1687 2806 2935 1932 2007 2267 2272 1964 1859 1792 1832 1796 1083 175 868 989 1099 1045 1032 922 1191 1261 1413 1237 1347 1291
511 447 70 111 45 99 90 70 27 198 400 336 373 294 315 318 438 473 634 589 645 742 942 2070 2327 2278 2052 2233 2319 2335 2128 1899 1749 1409 958 702 190 1 72 462 715 924 1060 1290 1323 1319 1245 1177 1283
142 37 342 299 142 56 74 80 123 141 259 521 298 364 338 280 467 673 622 534 546 612 1158 1852 2808 2681 2092 2196 2016 2030 2120 1872 1583 1126 606 413 256 241 161 329 393 728 799 1026 996 1148 1179 1393 1478
368 0 178 117 80 264 272 207 79 113 509 442 325 220 349 166 724 709 529 473 532 763 1197 1638 2266 2207 2034 1950 2222 2055 2006 1881 1377 868 450 434 361 322 206 556 453 661 931 1111 1125 1341 1599 1635 1578
432 72 42 104 208 302 581 659 249 306 507 406 381 267 114 379 686 700 640 555 702 861 1407 1546 1780 2030 2277 2193 2118 2278 2059 1810 1548 1016 568 490 247 531 549 612 810 1029 1244 1280 1309 1367 1538 1488 1393
200 74 27 49 193 160 559 488 434 404 418 365 160 205 302 478 679 669 671 720 928 1151 1652 1870 1858 1973 2022 2035 2121 2000 1999 1824 1284 817 784 248 29 100 1104 1141 909 877 800 828 902 1155 1460 1381 1158
53 139 105 7 217 207 525 388 621 454 459 283 197 275 149 490 501 567 834 1018 1265 1288 1487 1675 2210 2434 2178 1983 2152 2056 1740 1645 1394 1140 668 484 363 757 916 943 1414 1250 1040 1000 973 1123 1381 1381 1285
8 82 10 5 167 326 513 415 727 687 606 521 368 146 347 460 542 424 580 698 828 984 1215 1260 1597 1844 1533 1295 2246 2026 1813 1522 1727 1628 1324 801 882 780 400 881 1221 1115 1069 1058 1038 1168 1222 1226 1119
47 72 24 164 357 507 585 545 472 653 707 513 530 286 426 570 472 258 199 262 420 540 758 959 1481 1698 2031 1461 1988 1978 1809 1773 1589 1275 856 638 211 597 979 950 1481 1511 1208 1377 1190 955 1294 1363 1417
71 82 44 299 489 639 714 542 497 525 461 407 276 281 419 560 573 483 435 632 864 716 816 959 1214 1471 1933 1861 1814 1912 1539 1437 1403 1116 911 656 320 977 1136 1212 1334 1210 968 944 1092 1066 1341 1514 1453
0 207 406 120 254 388 579 631 590 505 387 429 393 406 459 510 565 638 771 883 1025 977 929 1096 1349 1629 1673 1963 1718 1747 1320 1351 1070 950 702 875 577 1048 617 892 1124 779 597 703 928 1095 1254 1618 1412
109 340 456 140 178 503 673 648 493 483 508 573 509 527 544 516 584 676 741 944 1002 1054 1026 1140 1292 1386 1470 1503 1664 1859 1547 1429 1162 855 608 337 900 1172 1041 505 551 704 891 788 887 1427 1025 1418 1779
57 1 1 39 54 420 765 775 741 584 585 688 642 642 645 726 726 747 784 872 967 1008 907 1015 1167 1215 1251 1359 1497 1615 1661 1296 946 771 863 124 564 1113 644 462 570 592 886 1060 1239 1121 62 317 946
0 0 0 0 46 325 690 221 548 645 745 802 778 695 691 779 785 830 878 950 929 927 984 1101 845 1051 1260 1373 1682 1357 1518 1322 965 976 622 196 1092 833 271 919 577 585 893 1299 1402 1223 840 72 286
0 0 0 0 16 421 763 66 627 688 735 891 950 867 759 771 814 837 840 833 758 873 1001 1029 1168 1148 1306 1316 1434 1086 1242 1907 1111 1030 582 474 749 482 449 897 728 926 1447 1455 1199 175 521 578 1258
0 0 0 0 0 54 39 235 216 782 770 812 953 1016 935 851 853 823 826 742 863 924 1077 1187 1169 1277 1377 1252 1373 803 959 1370 1300 952 720 528 297 611 1243 346 205 1310 1024 1185 1153 528 979 1224 1313
0 0 0 0 0 0 0 0 34 363 934 856 774 896 927 893 873 852 875 753 899 979 1128 1254 1403 1409 1201 1112 972 846 630 1039 952 756 458 725 424 823 1127 411 58 236 896 1340 1307 1404 1146 1252 1238
0 0 0 0 0 0 17 360 575 626 913 1043 932 759 692 694 710 713 799 859 949 1110 1261 1353 1465 1403 1176 991 919 912 1142 944 895 650 268 701 536 987 740 542 198 439 946 1607 1645 1552 1009 800 903
0 0 0 0 0 30 362 111 281 369 800 882 916 849 686 529 499 542 867 935 1045 1173 1325 1428 1518 1415 1178 987 876 852 1055 914 528 428 337 655 580 860 308 232 58 488 815 1213 1453 1314 975 584 254
0 0 0 0 0 0 22 0 0 0 0 156 499 796 671 431 365 421 656 959 1119 1213 1229 1393 1456 1288 932 853 855 933 764 662 392 486 495 832 977 532 422 454 88 522 192 849 1429 1549 719 241 171
0 0 0 0 0 0 0 0 0 0 0 0 3 708 737 503 425 511 802 1021 1019 1128 1072 1224 1301 1158 752 655 828 992 843 621 626 820 1020 811 1136 719 382 404 125 141 248 952 1990 1423 317 424 112
0 0 0 0 0 0 0 0 0 0 0 0 27 517 817 692 543 523 747 882 926 992 897 836 1176 1130 872 661 712 888 767 737 652 764 698 646 615 688 739 867 928 217 844 1581 1853 2303 755 633 926
0 0 0 0 0 0 0 0 0 0 0 0 12 138 877 877 634 503 593 766 973 1035 1053 992 851 1153 849 619 564 647 858 947 932 1031 624 642 818 912 1163 1239 524 459 1084 1600 2402 2744 1755 1556 1718
0 0 0 0 0 0 0 0 0 0 0 62 110 148 805 981 869 573 557 761 1021 1112 1233 1001 791 1139 753 594 578 713 854 808 662 732 549 579 938 920 1829 1892 1504 1195 794 824 2116 2274 2232 2318 2129
0 0 0 0 0 0 0 0 0 0 0 0 266 364 721 755 955 705 574 715 968 1140 1306 1259 1199 1240 734 531 598 521 809 718 635 737 759 694 869 795 1467 1819 1916 1961 1773 1483 1661 2033 2544 2268 2025
0 0 0 0 0 0 0 0 0 0 0 0 2 30 567 765 678 771 629 739 955 1089 1224 1244 1231 1238 929 496 428 402 282 598 682 603 713 1342 1260 1213 1559 1852 1853 1966 1906 2026 2105 2199 2053 2150 1937
0 0 0 0 0 0 0 0 0 0 0 0 12 92 207 506 712 777 648 784 990 1090 1169 1228 1068 955 938 545 271 394 344 238 633 605 685 1305 1335 1723 1688 2005 2274 2354 2136 2122 2461 2475 2227 2309 2487
0 0 0 0 0 0 0 0 0 0 0 6 28 74 305 383 613 727 747 761 847 1162 1258 1292 1213 1075 840 593 318 264 380 244 483 749 881 1274 1209 1618 1935 2115 2107 2235 2345 2409 2360 2044 1629 2122 1921
CIN
-298 -302 -217 -148 -78 -45 -62 -60 -141 -30 -15 -38 -36 -51 -32 -52 -55 -22 -116 -122 -97 -50 -4 -0 -0 -0 -0 -0 -0 -0 -0 -0 -4 -3 -5 -1 -0 -0 -0 -0 -0 -0 -0 -0 -0 -2 -6 -10 -8
-0 -188 -198 -203 -60 -40 -69 -96 -106 -53 -50 -58 -39 -51 -41 -29 -92 -116 -118 -88 -81 -53 -34 -0 -0 -0 -0 -0 -0 -0 -0 -2 -4 -0 -5 -1 -0 -0 -0 -0 -0 -0 -0 -1 -0 -0 -9 -9 -8
-0 -274 -156 -98 -67 -106 -161 -186 -108 -53 -50 -38 -23 -49 -57 -62 -92 -97 -104 -91 -53 -49 -46 -0 -0 -0 -0 -0 -0 -0 -0 -0 -0 -0 -0 -0 -31 -1 -0 -0 -0 -5 -4 -0 -0 -0 -8 -7 -12
-206 -180 -235 -93 -126 -90 -82 -103 -54 -69 -24 -30 -35 -32 -72 -99 -76 -74 -81 -85 -52 -43 -20 -0 -0 -0 -0 -0 -0 -0 -0 -0 -0 -0 -1 -0 -10 -22 -36 -12 -9 -4 -0 -4 -4 -0 -7 -9 -7
-240 -211 -53 -45 -61 -119 -120 -112 -113 -108 -55 -33 -46 -50 -71 -101 -75 -50 -77 -84 -62 -47 -9 -0 -0 -0 -0 -0 -0 -0 -0 -0 -0 -2 -11 -13 -10 -18 -44 -16 -14 -3 -5 -2 -5 -5 -2 -0 -3
-83 -0 -43 -40 -37 -38 -45 -62 -110 -113 -34 -53 -58 -60 -65 -130 -49 -53 -67 -77 -49 -47 -8 -0 -0 -0 -0 -0 -0 -0 -0 -0 -2 -5 -12 -23 -15 -7 -26 -8 -6 -6 -4 -2 -5 -1 -0 -0 -1
-71 -128 -75 -73 -29 -12 -15 -32 -34 -29 -28 -27 -60 -47 -150 -82 -43 -45 -50 -48 -35 -20 -0 -0 -0 -0 -0 -0 -0 -0 -0 -1 -1 -2 -1 -19 -16 -0 -0 -0 -3 -3 -1 -1 -0 -0 -0 -1 -3
-148 -122 -95 -113 -38 -19 -18 -16 -16 -20 -32 -71 -113 -46 -48 -85 -55 -26 -22 -20 -9 -5 -0 -0 -0 -0 -0 -0 -0 -0 -0 -1 -2 -1 -0 -27 -33 -13 -0 -0 -0 -0 -2 -0 -5 -0 -1 -1 -5
-236 -85 -71 -25 -30 -23 -19 -10 -30 -49 -41 -75 -100 -78 -125 -120 -82 -25 -7 -0 -0 -0 -0 -0 -0 -0 -0 -0 -0 -0 -2 -0 -0 -0 -0 -9 -0 -0 -0 -2 -2 -0 -0 -0 -1 -0 -0 -1 -2
-60 -94 -57 -36 -50 -22 -13 -15 -15 -19 -35 -53 -82 -184 -150 -123 -58 -41 -12 -11 -10 -3 -1 -0 -0 -0 -0 -0 -0 -0 -0 -0 -0 -0 -1 -11 -2 -1 -13 -3 -1 -0 -0 -0 -0 -0 -0 -2 -1
-133 -65 -92 -53 -50 -43 -24 -20 -38 -17 -16 -24 -36 -116 -131 -82 -51 -45 -28 -37 -50 -43 -18 -6 -0 -0 -0 -0 -0 -0 -0 -0 -0 -0 -11 -22 -55 -5 -2 -6 -0 -0 -2 -0 -0 -2 -0 -1 -6
-76 -114 -103 -68 -77 -58 -34 -54 -42 -43 -23 -35 -35 -90 -109 -75 -41 -21 -17 -17 -16 -28 -28 -15 -4 -0 -0 -0 -0 -0 -0 -0 -0 -0 -8 -19 -60 -3 -9 -2 -2 -1 -2 -7 -5 -9 -0 -10 -14
-9 -82 -90 -133 -117 -87 -82 -65 -69 -89 -99 -82 -80 -94 -91 -66 -44 -26 -15 -8 -15 -21 -17 -19 -6 -0 -0 -0 -0 -0 -0 -0 -0 -3 -17 -7 -13 -6 -31 -20 -3 -17 -22 -35 -18 -6 -8 -9 -6
-132 -113 -89 -145 -132 -100 -85 -93 -127 -116 -124 -110 -97 -73 -76 -72 -55 -41 -26 -11 -20 -17 -13 -14 -15 -5 -3 -7 -1 -0 -0 -0 -0 -3 -24 -60 -16 -3 -9 -51 -53 -29 -24 -33 -21 -2 -27 -11 -1
-156 -8 -8 -135 -169 -102 -115 -77 -99 -139 -171 -125 -107 -71 -71 -65 -65 -61 -48 -30 -19 -20 -21 -18 -15 -15 -10 -13 -10 -0 -0 -0 -0 -8 -12 -82 -34 -9 -26 -40 -57 -61 -27 -21 -15 -20 -124 -66 -26
-0 -0 -0 -0 -194 -157 -102 -37 -90 -175 -170 -144 -130 -111 -81 -72 -73 -64 -47 -36 -27 -19 -31 -18 -12 -17 -12 -10 -4 -2 -0 -0 -5 -2 -10 -67 -8 -25 -65 -4 -55 -63 -25 -9 -7 -17 -20 -71 -65
-0 -0 -0 -0 -91 -146 -106 -65 -82 -207 -172 -127 -132 -117 -98 -72 -73 -66 -58 -52 -39 -38 -34 -35 -21 -11 -11 -7 -13 -2 -4 -2 -5 -1 -19 -38 -18 -46 -35 -2 -25 -34 -10 -4 -17 -88 -47 -44 -23
-0 -0 -0 -0 -0 -47 -66 -102 -100 -199 -196 -137 -121 -121 -120 -83 -69 -56 -70 -57 -33 -47 -43 -33 -28 -18 -14 -4 -0 -3 -4 -2 -0 -1 -12 -29 -61 -26 -2 -57 -85 -12 -26 -15 -22 -51 -38 -22 -20
-0 -0 -0 -0 -0 -0 -0 -0 -108 -113 -202 -189 -175 -153 -132 -106 -50 -49 -64 -73 -55 -58 -62 -44 -27 -16 -9 -0 -0 -0 -1 -0 -0 -3 -27 -18 -35 -20 -10 -38 -133 -89 -28 -9 -23 -17 -37 -24 -35
-0 -0 -0 -0 -0 -0 -35 -68 -64 -107 -163 -162 -160 -178 -168 -119 -94 -81 -55 -75 -74 -75 -72 -59 -32 -20 -13 -1 -0 -0 -0 -0 -0 -2 -37 -16 -29 -18 -20 -26 -74 -51 -14 -10 -16 -26 -51 -68 -61
-0 -0 -0 -0 -0 -11 -114 -41 -78 -140 -253 -224 -203 -204 -183 -164 -118 -95 -90 -97 -86 -97 -88 -71 -40 -28 -17 -0 -0 -0 -0 -0 -0 -3 -19 -20 -39 -22 -75 -70 -144 -61 -45 -20 -34 -36 -47 -56 -115
-0 -0 -0 -0 -0 -0 -72 -0 -0 -0 -0 -244 -194 -229 -208 -224 -175 -98 -72 -91 -100 -113 -98 -79 -66 -54 -28 -2 -0 -0 -0 -0 -1 -10 -18 -13 -19 -41 -62 -63 -156 -84 -163 -74 -35 -27 -64 -97 -63
-0 -0 -0 -0 -0 -0 -0 -0 -0 -0 -0 -0 -12 -242 -219 -211 -162 -117 -93 -86 -100 -112 -113 -93 -70 -66 -53 -17 -0 -0 -0 -0 -0 -2 -8 -16 -11 -39 -61 -72 -151 -119 -138 -77 -19 -38 -110 -128 -119
-0 -0 -0 -0 -0 -0 -0 -0 -0 -0 -0 -0 -163 -294 -271 -209 -178 -137 -95 -107 -122 -118 -153 -189 -114 -78 -60 -50 -2 -0 -0 -0 -1 -4 -10 -19 -29 -34 -49 -42 -54 -138 -54 -30 -16 -14 -84 -98 -76
-0 -0 -0 -0 -0 -0 -0 -0 -0 -0 -0 -0 -211 -229 -278 -247 -220 -197 -171 -143 -126 -111 -129 -154 -181 -101 -83 -91 -39 -5 -0 -0 -6 -8 -10 -17 -17 -26 -23 -38 -71 -69 -52 -31 -11 -11 -34 -35 -23
-0 -0 -0 -0 -0 -0 -0 -0 -0 -0 -0 -198 -272 -267 -275 -249 -228 -249 -238 -192 -154 -122 -112 -125 -212 -120 -100 -129 -72 -21 -8 -0 -7 -15 -12 -14 -14 -16 -16 -22 -31 -43 -64 -59 -16 -8 -4 -6 -5
-0 -0 -0 -0 -0 -0 -0 -0 -0 -0 -0 -0 -171 -213 -247 -279 -222 -255 -276 -223 -184 -147 -132 -136 -157 -111 -138 -140 -91 -75 -17 -8 -6 -25 -32 -24 -40 -28 -19 -17 -23 -24 -28 -38 -26 -6 -2 -8 -6
-0 -0 -0 -0 -0 -0 -0 -0 -0 -0 -0 -0 -70 -165 -188 -256 -281 -245 -263 -249 -223 -176 -141 -139 -161 -152 -144 -141 -126 -118 -104 -35 -29 -41 -43 -31 -28 -44 -31 -22 -20 -21 -29 -27 -31 -13 -13 -11 -3
-0 -0 -0 -0 -0 -0 -0 -0 -0 -0 -0 -0 -197 -259 -247 -213 -276 -274 -290 -290 -245 -210 -165 -147 -181 -162 -140 -157 -168 -128 -106 -85 -35 -44 -47 -29 -33 -32 -32 -25 -18 -22 -27 -28 -20 -18 -14 -12 -4
-0 -0 -0 -0 -0 -0 -0 -0 -0 -0 -0 -251 -268 -325 -312 -308 -285 -303 -297 -319 -305 -256 -200 -179 -186 -161 -166 -184 -198 -173 -113 -97 -49 -38 -33 -26 -45 -40 -30 -26 -28 -29 -30 -33 -30 -23 -11 -12 -3
Wind_Speed
2 2 2 3 1 3 3 3 2 4 2 3 3 2 2 4 2 3 4 7 16 17 14 13 13 13 13 14 13 13 13 13 14 13 13 12 13 13 12 10 9 9 9 9 8 8 8 7 7
1 2 1 2 3 3 2 2 3 3 4 3 5 3 1 2 3 7 12 10 18 16 14 12 11 13 13 11 14 13 13 12 12 13 11 12 9 10 10 10 8 7 7 8 7 6 4 4 5
2 1 1 3 2 3 3 3 3 2 1 2 3 3 2 3 3 12 6 16 16 14 13 12 12 13 14 13 13 14 13 13 13 12 12 13 13 5 5 5 6 5 5 6 6 5 4 3 4
1 1 2 4 5 2 2 3 3 1 3 3 4 4 4 6 5 6 14 17 15 15 13 14 14 13 13 12 12 13 13 12 12 12 12 13 11 7 5 5 6 5 6 5 5 5 5 4 4
1 1 4 3 3 0 3 2 5 2 1 6 4 4 4 4 6 13 15 15 15 14 12 13 11 13 12 11 11 12 12 12 12 12 11 12 11 7 4 7 6 6 6 5 5 6 5 5 4
2 1 3 3 3 1 3 3 3 2 3 5 3 6 5 2 10 12 14 14 13 13 11 12 12 11 11 11 9 10 11 10 11 12 12 14 10 10 11 10 7 6 5 5 6 6 6 6 5
3 2 2 1 3 1 1 5 3 3 4 3 8 6 3 6 8 12 13 12 12 11 10 10 11 10 11 11 10 11 11 11 11 12 13 15 13 9 10 7 6 5 5 6 5 5 4 5 3
2 1 1 2 1 1 2 5 3 2 4 7 4 3 4 10 13 12 12 11 11 9 10 10 9 9 9 9 10 9 10 9 10 12 14 14 13 8 7 6 7 6 5 5 5 5 5 4 5
2 1 1 1 2 2 3 3 3 2 8 3 1 1 4 19 17 14 12 10 9 9 9 9 10 9 8 7 7 8 8 9 10 11 13 12 7 6 6 4 4 6 5 6 6 6 6 4 4
1 1 1 0 1 1 2 4 6 5 7 4 3 6 15 18 17 16 15 13 13 13 12 10 9 9 8 6 5 6 6 5 5 6 7 5 5 5 4 2 4 4 4 6 6 6 6 6 3
1 2 3 2 1 4 1 3 3 5 7 7 8 13 17 18 15 15 15 14 15 13 10 11 9 8 8 7 5 4 4 4 5 7 5 5 4 4 2 2 2 4 3 3 4 4 4 5 3
3 2 2 1 1 1 1 2 4 10 3 2 7 15 17 18 17 16 14 14 12 13 13 11 11 9 9 6 6 6 5 5 4 6 6 5 4 3 2 2 4 4 3 4 3 2 3 4 4
6 5 3 3 4 2 2 5 4 8 5 6 13 16 16 16 16 14 13 12 12 11 12 12 12 11 10 9 6 5 5 5 5 5 5 5 4 3 3 3 3 3 3 3 2 3 4 4 5
5 6 6 3 3 2 4 2 1 1 8 11 15 17 15 15 15 14 13 13 13 11 13 13 13 12 11 10 9 6 6 6 5 5 6 3 3 3 3 3 3 3 3 3 3 3 3 3 5
5 7 7 2 3 2 2 6 10 4 11 14 15 15 14 15 14 16 15 15 14 12 11 13 13 11 11 12 10 7 7 7 7 6 7 4 4 4 3 3 4 4 4 3 3 4 3 3 4
4 2 6 4 1 1 3 7 3 8 13 15 15 15 15 16 17 15 14 14 13 12 13 12 11 11 11 9 7 6 8 8 7 6 6 6 6 4 4 4 3 3 4 4 4 3 3 3 4
5 5 11 8 2 1 5 13 5 7 12 12 15 16 16 15 16 16 16 15 14 14 12 12 12 12 11 8 6 7 9 7 7 6 5 6 6 4 5 4 3 4 4 4 4 4 4 4 4
8 8 9 12 6 7 9 20 14 6 12 14 14 16 17 17 19 17 16 14 14 13 12 12 10 10 9 6 6 5 5 5 6 6 6 7 6 6 5 2 1 4 4 4 5 6 3 3 4
7 7 12 17 8 6 6 16 20 11 13 15 16 18 18 20 17 15 13 14 14 13 13 13 12 10 8 7 7 6 6 6 7 6 7 6 7 5 4 3 3 3 4 4 4 5 5 4 3
5 10 11 12 4 4 7 14 17 10 17 19 19 19 19 18 17 14 15 16 16 15 14 13 13 12 9 7 7 4 7 7 7 6 7 7 6 5 4 4 2 4 4 4 5 5 4 2 3
9 7 6 9 14 2 8 9 6 2 8 10 17 17 19 20 20 18 17 18 16 16 16 15 14 12 10 9 6 5 6 4 5 6 7 6 6 6 5 4 2 4 2 3 3 4 4 3 2
9 5 7 10 11 9 3 10 16 4 8 11 12 16 19 18 18 17 17 17 18 16 15 15 14 13 10 11 9 10 9 8 6 7 6 6 7 6 8 4 3 4 2 2 2 5 3 3 4
7 2 9 9 7 5 3 5 7 6 7 8 5 13 17 19 19 18 18 19 16 14 14 13 13 12 12 11 10 10 10 7 7 6 8 5 5 6 6 5 4 3 2 3 3 4 5 2 2
6 8 4 1 2 6 3 4 7 4 9 13 6 5 14 17 16 16 15 13 14 13 13 13 16 14 12 12 12 12 12 9 7 7 6 5 4 4 5 4 5 4 4 4 4 4 5 3 2
3 5 4 3 3 7 3 4 10 17 10 10 11 4 13 16 16 16 17 16 15 16 16 15 14 15 14 14 13 13 12 10 9 8 7 6 5 5 5 6 6 5 4 3 2 5 5 4 2
5 5 5 4 6 12 3 6 5 7 10 7 4 3 9 16 18 19 19 18 19 19 18 15 13 14 14 14 14 12 11 8 7 7 6 6 5 5 5 6 5 5 5 4 3 2 2 4 3
4 7 2 3 1 4 2 4 12 3 6 7 2 3 7 12 16 18 17 18 19 19 19 18 14 15 15 14 13 12 10 10 8 8 6 5 5 5 6 6 6 6 5 6 5 3 3 2 3
10 7 4 3 4 4 3 5 6 11 12 13 11 7 8 10 13 14 16 18 18 19 17 17 14 16 15 15 13 12 11 10 8 6 8 6 5 7 6 6 6 6 6 6 6 4 4 4 4
5 5 2 2 3 5 7 5 4 6 9 11 12 10 8 9 11 14 14 16 16 16 17 18 16 15 15 15 13 13 12 11 10 8 8 7 5 7 8 7 6 5 6 7 7 7 5 6 6
5 2 6 8 6 3 5 8 3 5 10 4 9 10 8 8 10 12 14 15 16 17 17 18 17 17 15 14 14 14 12 11 12 10 10 7 7 6 8 7 6 5 5 6 9 8 7 8 7
Wind_Direction
183 151 170 197 107 64 82 82 1 89 111 335 192 212 343 33 16 38 128 153 147 145 144 147 138 134 129 125 123 124 122 124 122 137 134 143 142 149 151 142 150 148 145 144 137 133 116 101 96
313 144 171 91 71 96 73 158 66 81 116 76 110 110 57 56 66 111 138 152 152 144 145 144 145 140 133 132 132 132 130 126 130 129 134 128 113 141 152 148 158 163 157 160 151 147 137 111 110
278 273 325 64 73 84 102 165 129 72 237 145 117 52 40 36 95 147 127 150 149 144 144 142 143 141 138 139 134 137 136 133 135 134 130 129 147 126 149 172 180 169 190 163 165 180 169 154 138
339 163 84 64 76 93 90 122 145 44 97 187 120 92 99 1 147 152 143 150 151 146 147 141 147 147 142 140 138 140 137 136 133 131 127 127 132 187 199 210 209 203 208 190 171 171 182 176 154
48 65 60 75 68 154 200 188 144 111 249 158 164 112 77 75 108 137 146 154 152 148 148 145 150 147 144 141 138 139 142 144 142 134 126 127 139 167 308 268 220 207 197 193 164 175 169 159 151
71 355 50 50 41 86 270 196 161 196 146 139 114 128 114 108 143 148 152 154 155 151 153 149 151 151 150 147 154 149 140 142 139 143 138 128 140 175 188 241 213 201 199 173 158 166 157 161 162
57 47 63 354 329 346 213 147 187 171 169 187 139 141 111 172 150 152 152 154 154 154 155 155 159 162 163 153 161 149 146 154 151 156 146 141 161 192 192 202 193 188 168 152 173 165 176 173 168
76 48 120 222 295 39 168 154 99 150 145 124 161 163 159 170 154 149 148 151 157 155 162 163 165 170 168 160 165 163 157 151 159 161 161 167 181 185 181 174 181 196 180 176 180 180 192 169 147
136 56 337 292 223 51 161 176 80 106 147 134 131 43 115 144 150 150 146 150 160 171 176 176 168 166 169 165 171 153 153 158 164 166 166 169 178 182 177 174 215 189 194 186 191 197 205 191 171
33 328 332 268 259 340 203 213 146 166 165 186 169 99 137 148 159 160 168 169 178 178 185 179 184 176 179 175 171 155 151 154 155 149 142 151 168 181 184 196 236 209 203 186 189 204 211 214 199
135 303 328 24 284 276 175 199 185 197 203 205 187 151 154 157 166 172 182 184 186 182 185 187 191 189 190 176 165 158 156 167 161 152 160 168 168 189 167 220 188 165 140 176 177 182 206 211 216
310 300 242 323 3 196 245 151 217 211 231 256 166 158 160 167 175 182 185 189 191 189 190 186 194 188 204 187 178 171 175 185 177 169 173 174 189 184 186 223 202 168 168 180 186 207 226 205 192
16 338 310 303 268 253 194 234 258 239 191 141 148 162 173 180 184 189 191 191 192 201 198 190 194 191 195 197 182 188 192 193 178 180 183 190 191 175 164 220 201 181 178 181 199 214 224 215 214
327 308 297 285 265 249 241 250 252 327 180 159 164 175 181 190 192 191 197 200 195 200 203 196 196 194 191 200 184 192 194 195 191 198 201 201 198 185 202 223 189 200 224 166 200 220 211 185 205
334 330 327 338 307 275 226 252 236 212 172 174 180 183 188 196 197 204 197 202 206 202 196 197 194 193 199 212 191 189 197 190 201 197 206 178 189 196 193 200 207 203 216 197 196 172 166 172 181
348 39 350 1 293 7 234 289 250 176 175 185 187 189 195 203 205 207 205 205 202 204 194 198 192 188 198 204 197 195 206 193 202 200 199 190 209 185 178 195 207 228 220 204 190 179 185 178 175
25 338 326 327 275 303 233 290 289 159 194 196 196 194 200 207 211 208 209 205 201 197 196 195 194 194 197 204 187 190 215 189 199 198 201 201 206 198 209 203 236 219 190 185 170 157 204 167 156
327 319 316 314 312 266 264 267 261 200 201 210 209 206 203 207 215 210 208 209 202 196 193 196 189 189 186 183 180 180 203 207 199 205 206 210 212 220 220 218 273 216 188 179 184 170 141 154 141
288 291 308 305 320 283 258 268 283 234 217 214 214 212 212 212 212 210 204 202 194 194 187 191 181 178 177 180 189 190 191 203 204 201 206 209 214 220 207 169 171 243 231 213 177 151 152 136 146
267 301 311 295 314 284 296 282 282 249 234 224 215 215 216 216 208 205 207 198 195 187 186 186 183 175 182 186 188 195 199 200 202 197 202 209 204 214 208 210 198 215 210 183 190 184 160 133 164
269 267 296 299 326 304 293 281 285 260 261 247 235 223 218 208 207 205 197 193 192 187 186 185 180 175 180 188 179 171 173 166 182 192 196 200 202 210 199 192 161 187 208 195 200 199 197 153 161
280 214 282 306 327 316 338 310 310 296 283 248 237 218 217 207 208 205 199 193 195 189 181 182 176 172 178 181 186 191 193 190 192 187 190 189 200 203 206 192 158 160 155 218 212 194 187 171 168
282 303 313 310 289 297 232 263 277 312 304 319 291 219 214 200 200 199 195 195 189 178 182 180 177 174 173 178 193 195 203 188 182 176 180 187 183 208 213 219 199 192 206 200 194 164 162 109 161
303 300 301 86 263 260 60 274 288 312 318 317 313 227 208 200 201 198 194 178 179 174 176 180 177 179 179 176 193 205 201 190 182 179 189 191 195 194 209 214 204 183 201 196 181 158 161 162 139
224 277 293 257 237 298 117 246 270 289 304 303 309 256 197 195 191 191 185 177 177 180 188 188 174 181 183 179 193 203 205 194 191 188 195 187 189 190 198 194 192 205 205 204 196 165 152 182 186
187 273 268 281 286 305 160 241 292 282 331 318 315 278 201 195 194 194 187 180 181 187 193 187 180 183 188 183 193 200 201 205 199 194 199 205 208 194 176 199 205 213 232 239 222 195 177 159 181
146 218 354 190 148 256 275 269 277 328 336 359 325 253 207 211 207 195 191 189 186 188 195 191 181 186 188 189 191 195 201 208 203 194 195 212 211 208 200 201 209 223 216 224 227 233 222 230 239
245 138 196 201 246 269 242 277 278 324 343 344 1 297 246 205 207 204 196 193 193 194 194 190 188 185 184 189 194 194 201 206 208 201 203 203 211 213 205 207 216 220 222 220 214 219 207 223 239
158 203 198 252 260 269 276 260 203 278 326 325 343 345 268 225 200 201 197 195 196 191 191 193 194 184 185 190 188 199 203 208 209 209 207 205 200 210 207 210 220 231 228 222 216 222 230 227 222
267 213 215 244 210 236 305 265 186 266 307 316 340 339 310 259 205 198 192 187 190 195 194 192 191 192 189 185 183 195 198 203 209 215 208 203 205 197 203 205 210 221 233 228 225 226 218 226 236